CAPE
0 0 0 0 0 0 0 0 0 0 0 35 16 11 163 79 47 0 0 109 850 609 1744 2006 2587 2684 2546 2066 1910 1647 1397 1258 1298 1262 1146 1193 1385 1472 1915 1919 1860 1717 1330 1130 1039 671 366 266 397
0 0 0 0 0 0 0 0 0 0 0 314 275 307 826 1 0 43 131 29 67 1321 1374 1963 2612 2628 2604 2259 2004 1645 1418 1335 1360 1407 1352 1320 1434 1522 1742 1988 1934 1859 1199 707 500 489 288 168 327
0 0 0 0 0 0 0 0 0 0 0 6 534 1250 1040 10 7 152 691 850 1900 1681 1540 2183 2642 2582 2578 2506 2089 1721 1537 1390 1436 1392 1452 1494 1586 1612 1663 1965 1845 1921 1256 814 460 525 329 230 238
0 0 0 0 0 0 0 0 0 0 0 2 455 1747 1783 88 187 682 1683 2061 1288 1691 1808 2521 2560 2565 2506 2476 2271 1894 1665 1541 1582 1568 1568 1612 1725 1747 1740 1839 1741 1898 1514 986 930 629 339 249 240
0 0 0 0 0 0 0 0 0 0 0 15 539 1081 1800 2058 1769 1823 2076 1965 2174 1595 1694 2115 2415 2476 2449 2252 2285 2122 1876 1633 1701 1798 1759 1741 1790 1792 1882 1808 1701 1698 1600 1287 1149 818 384 230 223
0 0 0 0 0 0 0 0 0 0 0 0 0 0 144 411 1145 1053 2284 2519 2069 1363 1095 1496 2209 2319 2385 2390 2379 2338 2194 1973 1901 1848 1755 1737 1810 1799 1835 1848 1758 1687 1749 1525 1346 986 486 233 111
0 0 0 0 0 0 0 0 0 0 0 0 0 0 0 0 35 750 1821 1916 1052 657 519 648 1389 1940 2244 2290 2270 2321 2222 2077 1977 1882 1792 1795 1852 1852 1836 1811 1810 1695 1734 1856 1455 1231 730 317 98
0 0 0 0 0 0 0 0 0 0 0 0 0 0 0 0 0 0 192 1195 1014 544 178 140 597 1343 1638 1790 2206 2187 2098 2070 2001 1979 1915 1851 1880 1894 1894 1698 1736 1945 1858 1919 1678 1387 1028 554 172
0 0 0 0 0 0 0 0 0 0 0 0 0 0 0 0 0 0 0 0 31 0 0 89 409 531 310 456 1394 2006 1879 1834 1803 1830 1906 1715 1373 1171 1411 1508 1560 1803 1902 1893 1784 1491 1192 823 424
0 0 0 0 0 0 0 0 0 0 0 0 0 0 0 0 0 0 0 0 0 0 0 0 0 0 0 919 725 1234 1467 1462 1324 979 1055 1155 866 588 759 1016 1608 1431 1685 1680 1710 1544 1336 1110 193
0 0 0 0 0 0 0 0 0 0 0 0 0 0 0 0 0 0 0 0 0 0 0 0 0 0 0 0 404 375 682 398 332 134 42 495 543 119 214 111 737 807 1214 1077 1343 1233 1030 581 210
0 0 0 0 0 0 0 0 0 0 0 0 0 0 0 0 0 0 0 0 0 0 0 0 0 0 0 0 0 0 464 2 173 514 466 375 233 172 365 107 53 297 372 847 730 762 581 375 116
0 0 0 0 0 0 0 0 0 0 0 0 0 0 0 0 0 0 0 0 0 0 0 0 0 0 0 0 0 0 0 834 869 575 276 168 12 13 20 56 339 331 332 496 517 498 488 364 156
0 0 0 0 0 0 0 0 0 0 0 0 0 0 0 0 0 0 0 0 0 0 0 0 0 0 0 0 0 0 0 0 300 921 272 90 0 0 0 0 17 905 632 677 861 787 438 337 268
0 0 0 0 0 0 0 0 0 0 0 0 0 0 0 0 0 0 0 0 0 0 0 0 0 0 0 0 0 0 0 0 0 66 52 0 0 0 0 0 61 1113 1227 1078 770 803 464 226 346
0 0 0 0 0 0 0 0 0 0 0 0 0 0 0 0 0 0 0 0 0 0 0 0 0 0 0 0 0 0 0 0 0 0 0 52 199 747 140 0 453 1516 1748 1813 1244 400 0 0 342
0 0 0 0 0 0 0 0 0 0 0 0 0 0 0 0 0 0 0 0 0 0 0 0 0 0 0 0 0 0 0 0 0 0 6 40 34 459 1008 1358 1670 1701 1534 1555 1346 473 0 254 721
0 0 0 0 0 0 0 0 0 0 0 0 0 0 0 0 0 0 0 0 0 0 0 0 0 0 0 0 0 0 0 0 0 0 0 0 18 37 19 274 1766 1870 1592 1426 1423 1269 972 771 746
0 0 0 0 0 0 0 0 0 0 0 0 0 0 0 0 0 0 0 0 0 0 0 0 0 0 2 0 0 0 0 0 0 0 0 0 0 11 27 26 88 1221 1578 1545 1329 1354 1300 1014 935
0 0 0 0 0 0 0 0 0 0 0 1 0 0 0 0 0 0 0 0 0 0 0 0 0 0 2 0 0 0 2 0 0 0 0 0 0 0 97 94 79 133 1049 1275 1330 1116 1081 943 811
0 0 0 0 0 0 0 0 0 0 1 0 0 2 0 0 0 0 0 0 0 0 0 0 0 1 15 20 13 0 0 0 0 0 0 0 0 0 0 0 39 204 757 815 928 1070 885 749 831
0 0 0 0 0 0 0 0 0 0 0 0 0 12 22 8 0 0 0 0 0 0 0 0 0 14 41 48 36 0 0 0 0 0 0 0 0 0 0 0 0 7 88 591 607 944 830 626 626
0 0 0 0 0 0 0 0 0 0 0 0 0 0 2 0 0 0 0 0 0 0 0 0 0 2 0 2 39 0 0 0 0 0 0 0 0 0 0 0 0 0 0 105 603 701 616 625 590
0 0 0 0 0 0 0 0 0 7 38 0 0 0 10 0 0 0 0 0 0 0 0 0 0 1 1 0 0 0 0 0 0 0 0 0 0 0 0 0 0 0 0 4 47 324 639 599 545
0 0 0 0 0 0 0 1 19 13 6 6 10 1 0 0 0 0 0 0 0 0 0 0 0 0 0 0 0 0 0 0 0 0 0 0 0 0 0 0 0 0 0 0 0 0 231 677 615
0 0 0 0 0 0 0 34 5 0 0 0 0 0 0 0 0 0 0 0 0 0 4 3 0 0 0 0 0 0 0 0 0 0 0 0 0 0 2 4 5 3 0 0 2 87 105 344 512
0 0 0 0 0 0 0 6 3 2 4 0 0 0 0 0 0 0 0 0 0 0 1 0 0 0 0 0 0 0 0 0 0 2 2 4 1 1 1 0 11 11 3 0 2 0 0 53 340
0 0 0 3 0 0 0 14 11 4 11 7 3 0 0 0 0 0 0 0 0 0 0 0 0 0 0 0 0 0 0 0 0 1 2 2 1 2 5 6 7 0 5 0 0 0 1 0 97
0 0 0 4 5 0 0 0 0 0 0 10 0 0 0 0 0 0 0 0 0 0 0 0 0 0 0 0 0 0 0 0 4 5 8 2 4 4 4 7 11 19 24 15 1 0 1 0 26
0 0 0 11 0 0 0 0 30 32 0 0 0 0 0 0 0 0 0 0 0 0 0 0 0 0 0 0 0 0 0 5 1 1 1 7 10 6 9 8 7 7 8 9 1 6 6 9 30
CIN
0 0 0 0 0 0 0 0 0 0 0 -459 -528 -237 -345 -264 -161 -21 0 -278 -287 -365 -181 -188 -127 -112 -113 -179 -174 -194 -226 -227 -192 -178 -176 -158 -118 -101 -40 -32 -30 -40 -63 -70 -87 -138 -181 -196 -151
0 0 0 0 0 0 0 0 0 0 0 -452 -385 -285 -133 -260 0 -484 -303 -454 -505 -182 -242 -209 -127 -111 -98 -134 -156 -191 -220 -214 -185 -165 -158 -131 -100 -72 -43 -24 -23 -24 -74 -138 -177 -175 -212 -235 -179
0 0 0 0 0 0 0 0 0 0 0 -28 -128 -62 -129 -479 -175 -388 -337 -261 -158 -163 -246 -215 -137 -122 -99 -95 -134 -164 -195 -202 -162 -153 -123 -109 -87 -80 -57 -13 -11 -5 -59 -128 -194 -175 -213 -229 -214
0 0 0 0 0 0 0 0 0 0 0 -2 -70 -32 -69 -615 -505 -314 -135 -99 -176 -264 -282 -164 -138 -131 -111 -101 -117 -142 -167 -180 -155 -128 -104 -92 -73 -53 -38 -22 -22 -14 -39 -100 -103 -139 -197 -211 -212
0 0 0 0 0 0 0 0 0 0 0 -55 -62 -33 -17 -40 -36 -42 -32 -83 -208 -297 -319 -251 -188 -153 -135 -138 -117 -120 -121 -134 -109 -83 -82 -74 -55 -47 -33 -26 -23 -16 -25 -52 -70 -108 -178 -210 -204
0 0 0 0 0 0 0 0 0 0 0 0 0 0 -46 -73 -240 -115 -49 -132 -235 -337 -405 -368 -269 -240 -215 -180 -144 -117 -97 -93 -74 -57 -51 -45 -38 -33 -24 -18 -19 -19 -11 -25 -42 -81 -161 -218 -250
0 0 0 0 0 0 0 0 0 0 0 0 0 0 0 0 -20 -54 -66 -141 -231 -356 -463 -452 -331 -264 -207 -198 -196 -180 -160 -137 -103 -80 -64 -48 -35 -25 -18 -12 -8 -12 -12 -6 -30 -49 -113 -192 -261
0 0 0 0 0 0 0 0 0 0 0 0 0 0 0 0 0 0 -49 -106 -198 -240 -240 -390 -389 -263 -254 -222 -167 -161 -174 -174 -173 -153 -106 -60 -30 -22 -22 -31 -23 -4 -5 -2 -13 -33 -69 -138 -234
0 0 0 0 0 0 0 0 0 0 0 0 0 0 0 0 0 0 0 0 -170 0 0 -488 -299 -297 -347 -345 -203 -136 -115 -108 -82 -59 -31 -69 -90 -84 -46 -48 -57 -37 -26 -23 -18 -37 -61 -100 -175
0 0 0 0 0 0 0 0 0 0 0 0 0 0 0 0 0 0 0 0 0 0 0 0 0 0 0 -110 -212 -177 -132 -148 -146 -188 -156 -132 -155 -179 -119 -118 -57 -60 -47 -45 -39 -49 -68 -84 -292
0 0 0 0 0 0 0 0 0 0 0 0 0 0 0 0 0 0 0 0 0 0 0 0 0 0 0 0 -204 -210 -202 -210 -231 -287 -339 -219 -167 -320 -259 -270 -115 -130 -99 -95 -71 -85 -100 -186 -304
0 0 0 0 0 0 0 0 0 0 0 0 0 0 0 0 0 0 0 0 0 0 0 0 0 0 0 0 0 0 -173 -36 -324 -222 -228 -286 -300 -338 -285 -334 -351 -222 -177 -137 -153 -158 -190 -236 -330
0 0 0 0 0 0 0 0 0 0 0 0 0 0 0 0 0 0 0 0 0 0 0 0 0 0 0 0 0 0 0 -137 -142 -234 -245 -330 -139 -295 -250 -482 -123 -192 -203 -170 -181 -161 -206 -231 -277
0 0 0 0 0 0 0 0 0 0 0 0 0 0 0 0 0 0 0 0 0 0 0 0 0 0 0 0 0 0 0 0 -198 -169 -302 -375 0 0 0 0 -235 -78 -99 -137 -129 -125 -132 -159 -168
0 0 0 0 0 0 0 0 0 0 0 0 0 0 0 0 0 0 0 0 0 0 0 0 0 0 0 0 0 0 0 0 0 -159 -353 0 0 0 0 0 -500 -127 -63 -58 -92 -114 -133 -171 -106
0 0 0 0 0 0 0 0 0 0 0 0 0 0 0 0 0 0 0 0 0 0 0 0 0 0 0 0 0 0 0 0 0 0 0 -285 -259 -169 -327 0 -288 -89 -63 -91 -79 -120 0 0 -140
0 0 0 0 0 0 0 0 0 0 0 0 0 0 0 0 0 0 0 0 0 0 0 0 0 0 0 0 0 0 0 0 0 0 -164 -306 -276 -126 -108 -93 -66 -77 -79 -87 -130 -198 0 -175 -65
0 0 0 0 0 0 0 0 0 0 0 0 0 0 0 0 0 0 0 0 0 0 0 0 0 0 0 0 0 0 0 0 0 0 0 0 -301 -286 -316 -243 -65 -71 -77 -88 -106 -79 -80 -69 -65
0 0 0 0 0 0 0 0 0 0 0 0 0 0 0 0 0 0 0 0 0 0 0 0 0 0 -48 0 0 0 0 0 0 0 0 0 0 -261 -254 -320 -315 -89 -42 -42 -77 -72 -52 -78 -80
0 0 0 0 0 0 0 0 0 0 0 -60 0 0 0 0 0 0 0 0 0 0 0 0 0 0 -64 0 0 0 -54 0 0 0 0 0 0 0 -199 -206 -232 -233 -72 -62 -49 -66 -41 -70 -85
0 0 0 0 0 0 0 0 0 0 -76 0 0 -121 0 0 0 0 0 0 0 0 0 0 0 -80 -254 -117 -214 0 0 0 0 0 0 0 0 0 0 0 -227 -143 -68 -59 -67 -63 -58 -37 -72
0 0 0 0 0 0 0 0 0 0 0 -51 -83 -231 -169 -36 0 0 0 0 0 0 0 0 0 -292 -235 -214 -241 0 0 0 0 0 0 0 0 0 0 0 0 -37 -156 -55 -72 -62 -51 -62 -27
0 0 0 0 0 0 0 0 -4 -66 0 0 0 0 -88 0 0 0 0 0 0 0 0 0 0 -56 0 -39 -204 0 0 0 0 0 0 0 0 0 0 0 0 0 0 -82 -46 -49 -81 -76 -46
0 0 0 0 0 0 0 -6 0 -98 -201 0 0 0 -130 0 0 0 0 0 0 0 0 0 -34 -27 -91 0 0 0 0 0 0 0 0 0 0 0 0 0 0 0 0 -28 -74 -26 -33 -53 -65
0 0 0 0 0 0 0 -8 -76 -106 -155 -96 -158 -41 0 0 0 0 0 0 0 0 0 0 0 0 0 0 0 0 0 0 0 0 0 0 0 0 0 0 0 0 0 0 0 0 -30 -21 -33
0 0 0 0 0 0 0 -48 -88 0 0 0 0 0 0 0 0 0 0 0 0 0 -78 -128 0 0 0 0 0 0 0 0 0 0 0 0 0 0 -3 -4 -5 -5 0 0 -1 -86 -44 -19 -24
0 0 0 0 0 0 0 -38 -97 -100 -95 -30 0 0 0 0 0 0 0 0 0 0 -109 0 0 0 0 0 0 0 0 0 0 -8 -11 -3 -5 -1 0 -3 -2 -3 -15 0 -2 -1 0 -81 -24
0 0 0 -4 0 0 0 -9 -19 -44 -45 -55 -38 0 0 0 0 0 0 0 0 0 0 0 0 0 0 0 0 0 0 0 0 -4 -2 -1 -2 -2 -1 -2 -4 -1 -3 0 -4 0 -1 0 -75
0 0 0 -10 -54 0 0 0 0 0 0 -69 -4 0 0 0 0 0 0 0 0 0 0 0 0 0 0 0 0 0 0 -2 -2 -1 -1 -2 -3 -3 -1 0 -1 -1 -1 -3 -2 -6 -3 0 -175
0 0 -1 -35 -1 0 0 0 -44 -82 -5 0 -1 0 0 0 0 0 0 0 0 0 0 0 0 0 0 0 0 0 -1 -1 -1 -2 -1 -1 0 -1 -1 0 0 -1 -1 -3 -1 -2 -2 -2 -163
Wind_Speed
6 8 3 3 5 4 6 9 5 14 9 5 7 14 15 11 5 3 14 12 18 12 4 6 8 9 10 12 12 12 13 12 12 12 11 10 10 10 10 10 9 9 9 8 7 7 6 5 5
4 5 0 4 3 2 7 5 8 7 13 19 16 13 16 7 7 11 5 26 18 10 5 5 8 8 8 9 10 11 12 12 12 12 13 11 9 8 8 8 8 8 9 8 7 6 5 5 5
3 5 2 4 3 5 4 5 7 4 6 6 8 6 16 14 17 7 9 20 19 13 8 7 8 8 7 8 9 9 10 10 10 11 10 10 9 9 8 7 6 6 7 8 7 6 6 7 6
2 4 5 1 9 13 8 5 7 8 3 12 14 12 15 31 19 19 16 23 16 12 8 9 9 9 8 8 9 8 10 11 11 10 9 10 9 8 7 8 8 8 7 7 6 6 6 6 7
2 2 2 4 11 6 2 4 4 6 2 14 21 13 13 17 10 14 15 16 18 14 11 9 12 11 10 9 8 8 8 8 8 9 10 10 9 9 9 8 7 7 7 7 7 7 7 7 7
3 2 3 5 9 6 4 4 5 8 12 8 16 11 6 10 22 5 15 18 16 17 12 11 15 15 14 13 11 10 8 8 8 7 7 7 8 8 8 8 8 8 7 7 8 8 8 8 8
4 1 7 9 12 5 2 2 6 8 12 9 8 9 4 11 5 8 19 16 15 15 13 9 5 9 10 11 13 14 13 12 9 8 8 8 8 7 7 7 8 8 8 8 9 9 9 9 9
4 3 10 7 7 3 2 4 6 12 6 7 5 4 5 6 9 8 5 14 13 10 9 7 4 1 4 4 8 8 9 11 13 14 11 8 7 8 9 10 10 10 10 10 10 10 10 10 11
1 4 5 8 9 3 3 6 6 5 6 7 7 8 5 9 11 19 18 22 11 14 13 6 4 1 5 5 6 6 5 4 3 2 3 6 4 5 7 9 12 15 15 14 13 12 12 11 12
5 4 7 3 5 7 6 8 7 12 15 12 9 9 11 14 18 19 19 15 13 11 10 8 5 6 6 5 5 4 5 4 5 5 6 5 6 6 9 12 17 16 18 17 16 16 15 12 5
7 7 5 6 7 8 4 6 5 10 9 8 10 12 18 17 17 17 16 14 12 10 10 9 6 6 7 5 3 1 1 2 4 6 7 6 4 3 3 4 7 8 13 7 11 10 8 10 8
1 7 2 4 7 7 7 5 7 14 7 10 10 12 16 17 14 14 14 14 12 10 10 11 10 7 7 4 4 3 2 4 4 4 7 5 3 5 4 4 6 7 7 10 8 7 9 11 11
3 7 1 5 7 3 10 7 9 10 10 11 14 16 13 12 12 12 10 10 12 12 12 12 11 9 10 9 5 3 2 2 5 5 6 4 5 5 3 5 9 7 8 8 7 9 9 10 12
4 6 2 1 5 3 2 6 7 6 9 10 12 11 11 12 11 9 9 9 9 9 9 10 11 10 9 7 7 5 4 4 3 4 6 5 4 4 4 6 6 7 8 9 10 10 9 8 9
2 4 8 3 4 5 4 6 7 9 8 10 10 9 10 11 11 8 6 6 6 4 6 8 8 8 8 8 9 6 5 6 4 4 7 8 6 6 7 6 5 9 5 7 5 5 5 7 10
6 4 4 9 8 4 6 8 9 9 9 8 10 9 11 10 9 8 7 6 5 4 5 6 6 7 7 7 8 8 8 6 6 6 4 10 11 11 8 7 9 11 4 3 3 2 5 7 5
5 5 6 6 8 8 5 5 7 9 8 5 7 9 12 9 7 7 7 5 6 5 2 0 3 4 5 5 5 6 8 6 6 6 5 9 4 8 12 13 12 7 6 5 4 4 4 11 4
5 5 4 9 6 6 1 4 6 9 9 9 7 9 8 8 8 8 7 7 7 5 4 3 2 2 3 4 4 4 6 7 7 8 8 9 9 12 9 6 8 6 4 5 3 6 7 5 6
5 6 7 4 7 6 4 4 5 10 7 7 8 8 8 8 6 6 7 7 6 3 3 3 2 2 1 2 3 3 4 4 7 9 14 13 10 9 9 6 5 7 6 7 6 5 7 5 4
6 6 7 5 5 5 3 8 9 6 8 8 10 9 7 4 4 3 5 2 4 4 4 4 1 1 1 1 2 2 1 3 4 6 6 13 11 13 12 8 7 6 4 6 8 6 4 4 5
5 4 3 2 6 7 5 8 10 6 13 10 8 8 6 4 3 1 2 6 4 3 4 3 3 0 2 2 1 3 3 2 3 5 5 5 10 11 13 12 10 8 4 5 6 6 7 9 4
4 8 10 9 7 3 4 6 6 10 10 9 8 1 5 4 3 1 4 1 3 2 1 6 4 2 1 2 1 4 2 6 5 4 4 7 7 9 11 13 12 11 7 7 7 6 6 4 9
4 7 5 5 5 3 11 2 2 8 6 2 6 6 8 5 2 6 3 4 5 2 3 5 5 4 1 3 3 2 4 3 3 4 7 8 8 8 9 11 11 11 7 8 8 8 6 6 7
5 5 7 6 3 1 12 5 2 4 7 3 2 9 8 3 6 5 5 6 3 5 2 4 4 1 3 2 4 5 6 7 5 6 7 7 7 8 8 11 9 9 9 10 7 9 9 9 6
6 2 4 7 4 7 4 4 3 7 9 7 7 4 5 7 6 5 5 4 6 6 4 2 6 3 3 4 6 7 7 8 7 7 7 8 8 9 11 12 10 11 12 13 12 10 10 8 7
4 6 6 4 1 6 8 4 2 7 7 8 7 6 7 7 3 5 4 5 5 5 4 8 5 5 6 6 6 5 5 5 8 11 9 10 11 11 13 14 15 14 13 11 12 6 7 6 6
4 4 9 5 4 3 2 4 4 9 7 7 5 5 7 7 4 3 5 5 6 6 7 6 7 6 6 6 6 6 6 11 12 11 10 10 12 11 14 15 16 15 14 13 12 9 9 7 7
3 1 1 3 3 3 5 3 3 6 5 4 6 6 7 8 5 5 7 6 5 5 5 7 6 6 6 7 6 9 13 12 14 14 15 17 14 15 16 16 16 17 14 15 11 10 11 10 8
1 2 2 5 6 6 3 6 6 9 6 2 5 8 9 6 6 5 5 4 5 5 6 6 7 7 6 6 9 13 13 14 14 15 15 17 15 15 15 15 15 15 15 14 12 11 12 12 11
4 1 5 6 4 3 6 7 8 8 9 2 3 0 8 4 5 5 5 6 7 8 8 6 5 6 6 9 14 14 15 15 15 15 16 16 15 16 16 16 16 15 15 14 16 13 9 10 10
Wind_Direction
304 286 175 321 35 74 276 270 281 32 33 48 66 88 109 91 78 163 114 144 269 264 189 129 121 123 137 137 140 141 137 136 132 127 122 122 122 126 125 126 127 124 128 140 145 140 130 125 119
326 309 275 268 96 340 284 246 35 57 91 106 92 101 92 92 48 313 108 182 228 208 178 135 122 120 132 141 144 147 143 140 141 139 138 137 135 135 135 136 138 141 150 153 154 153 151 154 154
290 226 64 166 200 207 254 1 15 30 36 94 108 120 125 133 151 231 215 152 169 160 141 132 120 120 129 143 148 151 143 141 144 142 141 142 146 150 151 154 160 167 171 170 174 175 178 178 180
273 337 325 87 257 263 192 25 4 3 34 68 122 66 96 172 172 209 186 154 132 115 118 131 135 132 142 143 148 156 152 150 153 152 150 153 157 162 169 174 180 183 188 190 194 196 197 202 201
269 292 258 247 261 285 101 73 352 348 24 96 89 99 103 144 150 166 141 126 127 131 140 146 149 149 148 145 146 150 155 152 155 159 162 165 171 175 177 185 189 194 198 204 209 208 214 219 222
317 113 351 265 281 226 76 56 360 7 50 82 91 105 112 104 94 155 131 149 145 140 149 161 164 164 159 156 152 149 150 151 155 159 167 174 180 185 189 197 199 204 213 214 219 219 222 227 232
191 97 256 288 288 296 93 72 55 73 53 10 92 78 342 35 59 139 139 148 135 138 151 158 151 164 165 161 163 163 160 159 160 165 176 184 187 194 204 211 220 220 222 228 229 228 228 232 233
180 107 300 275 314 303 84 51 74 68 52 53 63 42 20 331 5 356 217 134 123 61 45 79 99 33 149 179 194 187 174 166 168 170 175 185 197 205 207 213 222 224 228 229 230 233 233 234 237
172 33 284 287 348 85 72 75 52 71 64 78 102 106 82 350 20 33 59 68 85 56 66 62 80 299 273 225 184 157 166 156 164 118 190 184 181 221 230 222 215 220 221 222 225 228 230 238 241
122 151 245 223 26 4 37 67 79 57 48 30 61 49 40 36 44 38 42 49 73 62 63 44 70 67 23 37 127 140 175 181 180 185 194 193 197 210 229 222 225 227 224 222 218 222 223 229 224
219 215 263 344 53 20 7 33 72 82 50 63 62 54 44 46 44 40 44 41 32 45 42 48 40 28 72 47 40 106 219 245 195 195 195 195 231 230 239 221 221 218 225 227 226 224 223 222 212
181 278 213 49 48 17 354 3 61 92 108 86 71 75 58 44 46 45 36 32 26 27 28 11 7 24 31 74 104 82 183 236 237 207 203 187 195 190 184 257 248 199 209 217 219 216 225 228 221
184 264 174 77 55 332 26 350 92 76 82 78 77 79 68 60 45 37 43 34 19 21 14 10 0 13 10 15 18 38 335 258 244 234 239 202 221 229 220 202 262 205 194 212 216 233 220 222 226
16 355 85 295 187 113 83 295 109 120 105 93 85 85 92 85 69 43 38 32 25 16 12 358 351 3 11 10 0 348 332 285 278 236 251 266 246 241 219 246 236 241 206 209 211 216 222 226 230
336 300 305 244 228 143 82 318 122 140 128 126 128 121 106 104 89 82 74 69 56 11 15 -0 358 358 4 359 349 338 313 319 308 226 231 222 224 236 214 232 273 262 236 226 193 234 264 250 227
240 251 232 236 191 167 116 285 141 142 136 164 139 136 123 113 116 115 106 97 81 64 30 3 1 0 7 353 336 328 316 304 289 286 222 220 216 223 239 233 240 234 211 187 208 222 228 220 211
268 233 219 128 168 154 136 141 166 170 154 154 139 136 130 130 132 142 128 136 144 139 135 36 354 340 347 343 324 324 324 331 335 332 326 319 289 238 225 225 233 216 210 205 172 199 230 257 250
326 339 79 147 179 94 319 306 190 184 159 182 149 123 129 120 145 153 164 188 164 163 178 184 235 294 328 325 324 329 330 327 331 327 319 317 313 310 314 319 266 231 255 261 228 196 218 220 232
316 305 316 94 153 124 143 246 267 193 181 148 159 137 120 109 136 148 190 202 165 174 208 216 243 280 9 318 325 333 320 326 338 336 325 319 310 313 302 295 293 287 233 237 229 216 219 238 231
319 301 298 304 33 92 145 249 245 230 179 162 118 95 97 106 141 228 268 122 144 208 231 226 350 333 275 269 283 286 299 288 290 306 328 327 350 337 334 317 293 283 272 250 239 226 242 245 209
283 298 293 53 357 349 325 305 268 259 115 96 99 120 134 183 202 107 46 139 187 223 200 115 138 149 258 284 308 305 309 315 313 298 308 305 320 328 328 320 310 307 300 273 257 236 220 251 268
335 20 11 8 20 281 50 276 311 94 53 73 82 87 295 136 107 235 85 187 206 154 183 158 136 162 223 326 325 307 285 306 280 275 278 296 301 305 311 305 308 310 296 284 271 266 238 232 254
258 28 345 300 287 335 296 14 243 99 62 127 154 231 288 280 28 55 29 305 83 266 247 166 151 179 324 345 9 337 301 267 269 286 290 292 293 284 291 295 297 292 281 269 253 260 260 247 244
298 306 296 267 186 330 249 205 275 140 163 185 215 240 260 16 49 22 14 60 321 315 15 142 163 48 69 40 312 305 294 292 301 296 296 299 303 303 297 291 303 330 328 332 311 282 249 247 240
201 27 331 348 38 219 330 330 221 137 146 165 195 189 21 12 27 2 43 358 328 325 10 57 65 27 347 350 344 340 338 331 325 316 310 308 303 300 301 302 303 304 303 303 304 297 290 258 244
291 137 146 196 39 288 333 31 359 64 59 64 56 29 5 340 324 9 17 322 318 11 45 67 49 7 12 17 14 7 347 324 310 302 299 295 296 295 292 295 291 287 288 285 287 289 287 274 248
329 56 164 107 18 31 235 99 47 66 36 26 345 322 302 295 323 59 338 339 18 20 50 52 35 23 6 12 1 332 343 324 310 298 292 294 293 293 290 286 284 285 287 288 290 283 291 288 271
212 272 49 21 127 228 313 76 202 142 154 246 319 335 325 323 350 338 10 42 10 48 53 33 45 22 10 9 348 335 322 313 306 302 294 294 293 286 283 280 280 278 270 270 268 277 275 273 277
175 258 200 131 135 168 192 268 184 193 171 162 271 310 293 313 343 32 29 10 33 55 38 30 31 12 1 347 330 325 314 307 305 299 295 294 288 280 277 276 275 271 268 260 261 265 269 267 268
130 262 127 121 267 190 155 263 278 154 180 101 83 226 277 329 42 42 18 18 34 34 26 26 1 354 347 336 329 320 313 309 307 299 296 294 289 284 280 272 267 266 265 264 264 263 270 280 275